QPF
0.05 0.05 0.06 0.09 0.09 0.09 0.10 0.13 0.17 0.21 0.23 0.16 0.11 0.10 0.11 0.10 0.08 0.08 0.08 0.05 0.05 0.05 0.06 0.07 0.07 0.07 0.06 0.07 0.09 0.15 0.19 0.22 0.18 0.14 0.09 0.07 0.06 0.07 0.09 0.07 0.06 0.06 0.05
0.04 0.05 0.05 0.06 0.07 0.09 0.08 0.09 0.10 0.14 0.17 0.16 0.11 0.09 0.10 0.11 0.10 0.08 0.08 0.07 0.07 0.08 0.07 0.08 0.09 0.08 0.08 0.08 0.09 0.11 0.12 0.14 0.16 0.16 0.12 0.09 0.08 0.07 0.07 0.08 0.07 0.06 0.07
0.04 0.03 0.03 0.04 0.06 0.05 0.05 0.05 0.06 0.09 0.12 0.15 0.13 0.12 0.13 0.13 0.12 0.11 0.09 0.07 0.06 0.08 0.09 0.10 0.10 0.08 0.08 0.08 0.10 0.11 0.11 0.12 0.13 0.13 0.14 0.14 0.11 0.10 0.08 0.07 0.06 0.05 0.06
0.05 0.03 0.02 0.02 0.04 0.05 0.07 0.08 0.07 0.10 0.12 0.12 0.15 0.15 0.15 0.14 0.15 0.16 0.15 0.11 0.08 0.06 0.07 0.08 0.09 0.08 0.07 0.08 0.10 0.10 0.10 0.11 0.14 0.17 0.21 0.23 0.19 0.15 0.14 0.11 0.07 0.06 0.05
0.04 0.03 0.03 0.04 0.04 0.05 0.07 0.06 0.08 0.09 0.11 0.11 0.11 0.13 0.14 0.14 0.14 0.14 0.14 0.13 0.13 0.12 0.08 0.07 0.07 0.07 0.09 0.10 0.10 0.11 0.11 0.13 0.13 0.13 0.16 0.18 0.19 0.17 0.15 0.14 0.12 0.09 0.07
0.04 0.03 0.03 0.03 0.03 0.05 0.05 0.03 0.04 0.05 0.06 0.08 0.09 0.13 0.16 0.15 0.15 0.14 0.13 0.14 0.17 0.14 0.11 0.09 0.07 0.06 0.08 0.09 0.11 0.11 0.10 0.10 0.11 0.11 0.14 0.16 0.17 0.17 0.16 0.14 0.14 0.13 0.09
0.02 0.02 0.03 0.03 0.04 0.04 0.04 0.03 0.03 0.04 0.05 0.05 0.06 0.10 0.13 0.14 0.15 0.14 0.14 0.15 0.15 0.14 0.12 0.10 0.07 0.06 0.05 0.06 0.07 0.09 0.10 0.11 0.13 0.14 0.16 0.18 0.19 0.20 0.17 0.16 0.17 0.15 0.11
0.02 0.03 0.03 0.03 0.04 0.04 0.04 0.04 0.03 0.03 0.04 0.05 0.05 0.07 0.09 0.10 0.09 0.10 0.12 0.13 0.13 0.12 0.10 0.08 0.08 0.07 0.06 0.06 0.05 0.08 0.11 0.13 0.14 0.14 0.15 0.18 0.22 0.25 0.23 0.21 0.18 0.18 0.16
0.02 0.02 0.02 0.02 0.02 0.03 0.05 0.05 0.04 0.03 0.04 0.04 0.04 0.05 0.06 0.06 0.06 0.07 0.08 0.07 0.07 0.06 0.06 0.05 0.05 0.06 0.06 0.06 0.06 0.06 0.06 0.07 0.08 0.09 0.11 0.14 0.17 0.19 0.19 0.19 0.19 0.19 0.20
0.02 0.02 0.02 0.02 0.03 0.03 0.05 0.05 0.04 0.04 0.03 0.04 0.04 0.04 0.05 0.06 0.06 0.06 0.06 0.05 0.04 0.03 0.05 0.04 0.04 0.05 0.06 0.05 0.05 0.04 0.04 0.03 0.04 0.05 0.06 0.07 0.09 0.11 0.12 0.11 0.09 0.10 0.11
0.02 0.02 0.01 0.01 0.03 0.03 0.05 0.04 0.04 0.04 0.03 0.03 0.05 0.05 0.06 0.06 0.06 0.08 0.07 0.05 0.04 0.03 0.03 0.03 0.03 0.04 0.04 0.05 0.05 0.03 0.03 0.03 0.03 0.04 0.04 0.04 0.04 0.07 0.09 0.08 0.06 0.06 0.07
0.02 0.02 0.02 0.02 0.02 0.03 0.04 0.03 0.04 0.04 0.04 0.04 0.04 0.05 0.05 0.05 0.05 0.06 0.05 0.05 0.06 0.05 0.04 0.03 0.02 0.02 0.03 0.03 0.03 0.03 0.02 0.02 0.02 0.03 0.03 0.02 0.02 0.04 0.06 0.07 0.06 0.07 0.07
0.03 0.02 0.02 0.02 0.02 0.03 0.04 0.04 0.05 0.05 0.05 0.05 0.05 0.06 0.06 0.05 0.04 0.05 0.05 0.05 0.05 0.04 0.04 0.03 0.03 0.02 0.02 0.03 0.03 0.02 0.02 0.02 0.02 0.02 0.03 0.02 0.02 0.03 0.05 0.06 0.05 0.05 0.05
0.03 0.02 0.02 0.02 0.02 0.02 0.03 0.04 0.04 0.04 0.03 0.03 0.03 0.06 0.07 0.05 0.05 0.05 0.06 0.07 0.05 0.04 0.04 0.03 0.04 0.04 0.03 0.03 0.02 0.02 0.01 0.01 0.01 0.01 0.01 0.02 0.03 0.02 0.02 0.03 0.03 0.03 0.03
0.03 0.03 0.02 0.02 0.02 0.03 0.03 0.04 0.04 0.04 0.03 0.03 0.04 0.06 0.06 0.07 0.07 0.07 0.08 0.07 0.07 0.06 0.04 0.03 0.04 0.05 0.05 0.05 0.03 0.03 0.02 0.01 0.01 0.01 0.01 0.01 0.02 0.03 0.02 0.02 0.02 0.02 0.02
0.03 0.03 0.02 0.02 0.02 0.03 0.03 0.03 0.02 0.03 0.03 0.04 0.04 0.05 0.05 0.05 0.06 0.05 0.05 0.06 0.07 0.07 0.06 0.04 0.04 0.05 0.06 0.05 0.04 0.03 0.03 0.02 0.01 0.01 0.01 0.01 0.02 0.02 0.03 0.02 0.02 0.02 0.02
0.03 0.02 0.03 0.03 0.03 0.03 0.03 0.03 0.02 0.02 0.02 0.03 0.03 0.03 0.03 0.03 0.04 0.03 0.03 0.04 0.05 0.06 0.04 0.04 0.04 0.03 0.06 0.08 0.07 0.06 0.04 0.02 0.02 0.01 0.02 0.02 0.02 0.02 0.03 0.03 0.02 0.02 0.02
0.05 0.03 0.02 0.03 0.03 0.04 0.04 0.04 0.03 0.03 0.03 0.02 0.02 0.02 0.03 0.04 0.04 0.04 0.03 0.03 0.04 0.05 0.04 0.04 0.04 0.03 0.04 0.07 0.07 0.06 0.04 0.03 0.02 0.03 0.02 0.02 0.02 0.03 0.03 0.06 0.06 0.04 0.03
0.06 0.05 0.03 0.03 0.03 0.05 0.05 0.04 0.03 0.03 0.03 0.02 0.02 0.02 0.02 0.02 0.03 0.04 0.04 0.03 0.03 0.03 0.03 0.03 0.03 0.03 0.03 0.04 0.06 0.05 0.05 0.04 0.03 0.02 0.02 0.01 0.02 0.02 0.03 0.04 0.08 0.11 0.07
0.07 0.06 0.04 0.04 0.04 0.04 0.05 0.06 0.06 0.04 0.03 0.02 0.02 0.01 0.01 0.02 0.03 0.03 0.03 0.02 0.03 0.03 0.03 0.02 0.02 0.03 0.04 0.04 0.05 0.05 0.05 0.06 0.04 0.03 0.02 0.02 0.01 0.01 0.02 0.02 0.03 0.06 0.10
0.06 0.05 0.03 0.02 0.02 0.02 0.02 0.02 0.03 0.04 0.05 0.04 0.03 0.02 0.01 0.02 0.03 0.03 0.02 0.03 0.03 0.03 0.03 0.02 0.01 0.01 0.01 0.04 0.06 0.05 0.05 0.05 0.04 0.03 0.03 0.02 0.02 0.02 0.01 0.01 0.02 0.03 0.05
0.04 0.03 0.02 0.02 0.02 0.02 0.02 0.02 0.02 0.02 0.03 0.04 0.05 0.05 0.04 0.03 0.02 0.02 0.02 0.02 0.02 0.02 0.02 0.03 0.02 0.01 0.01 0.03 0.04 0.05 0.04 0.03 0.03 0.03 0.04 0.03 0.02 0.02 0.01 0.01 0.02 0.02 0.02
0.02 0.03 0.02 0.02 0.02 0.02 0.02 0.02 0.03 0.03 0.04 0.04 0.05 0.08 0.06 0.04 0.04 0.03 0.03 0.03 0.03 0.02 0.02 0.03 0.02 0.02 0.02 0.02 0.04 0.04 0.03 0.03 0.03 0.03 0.04 0.04 0.04 0.03 0.02 0.02 0.03 0.03 0.02
0.03 0.03 0.03 0.03 0.03 0.03 0.04 0.04 0.06 0.05 0.03 0.03 0.04 0.04 0.06 0.05 0.04 0.04 0.04 0.04 0.02 0.02 0.01 0.01 0.02 0.02 0.02 0.03 0.03 0.03 0.03 0.02 0.02 0.03 0.04 0.04 0.03 0.03 0.02 0.03 0.02 0.01 0.01
0.03 0.03 0.04 0.05 0.05 0.05 0.05 0.04 0.04 0.03 0.02 0.02 0.02 0.02 0.02 0.02 0.03 0.03 0.04 0.05 0.04 0.03 0.02 0.02 0.02 0.02 0.02 0.02 0.03 0.04 0.03 0.02 0.02 0.02 0.03 0.04 0.03 0.03 0.04 0.04 0.02 0.01 0.01
0.03 0.03 0.04 0.05 0.05 0.04 0.04 0.03 0.03 0.02 0.02 0.02 0.02 0.02 0.01 0.01 0.01 0.02 0.04 0.05 0.06 0.05 0.04 0.04 0.03 0.03 0.04 0.04 0.05 0.05 0.04 0.03 0.02 0.02 0.02 0.03 0.03 0.04 0.04 0.03 0.03 0.03 0.02
MSLP
1014.50 1014.40 1014.22 1014.01 1013.78 1013.59 1013.44 1013.34 1013.26 1013.18 1013.06 1012.88 1012.66 1012.42 1012.22 1012.12 1012.16 1012.38 1012.75 1013.25 1013.81 1014.36 1014.83 1015.19 1015.42 1015.52 1015.55 1015.54 1015.56 1015.62 1015.75 1015.94 1016.18 1016.44 1016.69 1016.91 1017.09 1017.24 1017.36 1017.48 1017.60 1017.73 1017.87
1014.54 1014.46 1014.29 1014.06 1013.82 1013.61 1013.44 1013.33 1013.25 1013.19 1013.10 1012.96 1012.78 1012.58 1012.39 1012.28 1012.27 1012.41 1012.70 1013.11 1013.60 1014.10 1014.58 1014.97 1015.27 1015.46 1015.57 1015.64 1015.71 1015.80 1015.94 1016.11 1016.32 1016.54 1016.75 1016.94 1017.10 1017.23 1017.34 1017.45 1017.55 1017.66 1017.79
1014.59 1014.53 1014.37 1014.16 1013.93 1013.72 1013.55 1013.44 1013.37 1013.33 1013.27 1013.17 1013.03 1012.86 1012.68 1012.53 1012.46 1012.50 1012.67 1012.97 1013.36 1013.80 1014.25 1014.67 1015.03 1015.31 1015.52 1015.69 1015.83 1015.96 1016.11 1016.27 1016.44 1016.62 1016.79 1016.94 1017.08 1017.20 1017.31 1017.42 1017.52 1017.64 1017.76
1014.58 1014.55 1014.44 1014.26 1014.06 1013.87 1013.72 1013.62 1013.57 1013.54 1013.52 1013.46 1013.36 1013.20 1013.02 1012.84 1012.69 1012.64 1012.68 1012.85 1013.12 1013.48 1013.88 1014.30 1014.71 1015.07 1015.38 1015.64 1015.86 1016.05 1016.22 1016.38 1016.52 1016.66 1016.79 1016.92 1017.04 1017.15 1017.27 1017.38 1017.51 1017.64 1017.78
1014.50 1014.51 1014.44 1014.32 1014.17 1014.02 1013.89 1013.81 1013.78 1013.78 1013.78 1013.75 1013.68 1013.54 1013.36 1013.15 1012.95 1012.79 1012.72 1012.75 1012.90 1013.16 1013.50 1013.90 1014.33 1014.75 1015.15 1015.50 1015.80 1016.05 1016.25 1016.42 1016.55 1016.67 1016.77 1016.88 1016.98 1017.10 1017.22 1017.36 1017.51 1017.66 1017.82
1014.33 1014.38 1014.37 1014.31 1014.22 1014.12 1014.04 1013.98 1013.97 1013.98 1014.00 1013.99 1013.94 1013.83 1013.65 1013.43 1013.18 1012.95 1012.78 1012.70 1012.74 1012.89 1013.15 1013.51 1013.93 1014.39 1014.84 1015.26 1015.64 1015.95 1016.20 1016.39 1016.53 1016.64 1016.74 1016.83 1016.94 1017.06 1017.20 1017.35 1017.52 1017.70 1017.87
1014.11 1014.19 1014.23 1014.24 1014.21 1014.17 1014.13 1014.10 1014.10 1014.11 1014.14 1014.14 1014.11 1014.02 1013.86 1013.64 1013.38 1013.12 1012.88 1012.72 1012.65 1012.70 1012.88 1013.17 1013.56 1014.02 1014.50 1014.97 1015.40 1015.76 1016.07 1016.29 1016.46 1016.59 1016.70 1016.80 1016.91 1017.04 1017.19 1017.36 1017.55 1017.73 1017.91
1013.86 1013.97 1014.06 1014.12 1014.16 1014.18 1014.17 1014.16 1014.17 1014.18 1014.19 1014.20 1014.17 1014.11 1013.98 1013.79 1013.56 1013.29 1013.03 1012.81 1012.67 1012.63 1012.72 1012.94 1013.27 1013.68 1014.16 1014.64 1015.10 1015.52 1015.87 1016.14 1016.36 1016.52 1016.65 1016.77 1016.90 1017.04 1017.20 1017.38 1017.56 1017.74 1017.92
1013.64 1013.75 1013.88 1013.99 1014.09 1014.15 1014.18 1014.18 1014.18 1014.17 1014.17 1014.17 1014.15 1014.11 1014.03 1013.90 1013.71 1013.48 1013.23 1013.00 1012.81 1012.70 1012.70 1012.83 1013.07 1013.42 1013.85 1014.31 1014.78 1015.22 1015.61 1015.93 1016.19 1016.40 1016.58 1016.73 1016.88 1017.04 1017.20 1017.37 1017.55 1017.72 1017.88
1013.46 1013.57 1013.72 1013.87 1014.00 1014.10 1014.15 1014.16 1014.14 1014.11 1014.08 1014.07 1014.07 1014.06 1014.04 1013.97 1013.87 1013.70 1013.50 1013.28 1013.07 1012.91 1012.83 1012.85 1012.99 1013.24 1013.58 1013.99 1014.43 1014.87 1015.28 1015.64 1015.95 1016.21 1016.43 1016.63 1016.80 1016.97 1017.14 1017.31 1017.47 1017.62 1017.76
1013.32 1013.41 1013.56 1013.74 1013.90 1014.01 1014.08 1014.08 1014.05 1013.99 1013.94 1013.92 1013.93 1013.96 1014.00 1014.03 1014.02 1013.95 1013.82 1013.64 1013.43 1013.23 1013.07 1012.99 1013.01 1013.14 1013.37 1013.69 1014.06 1014.47 1014.87 1015.25 1015.60 1015.90 1016.17 1016.40 1016.61 1016.80 1016.98 1017.14 1017.29 1017.43 1017.55
1013.18 1013.26 1013.40 1013.58 1013.75 1013.87 1013.94 1013.94 1013.89 1013.81 1013.75 1013.72 1013.75 1013.83 1013.94 1014.07 1014.16 1014.20 1014.16 1014.04 1013.85 1013.63 1013.40 1013.21 1013.10 1013.10 1013.19 1013.39 1013.67 1014.01 1014.38 1014.75 1015.11 1015.44 1015.74 1016.01 1016.24 1016.46 1016.65 1016.82 1016.97 1017.10 1017.22
1013.02 1013.07 1013.19 1013.36 1013.53 1013.65 1013.72 1013.71 1013.64 1013.56 1013.49 1013.47 1013.52 1013.66 1013.85 1014.07 1014.28 1014.43 1014.49 1014.43 1014.28 1014.04 1013.76 1013.48 1013.24 1013.09 1013.05 1013.11 1013.27 1013.52 1013.81 1014.15 1014.49 1014.82 1015.13 1015.42 1015.68 1015.92 1016.13 1016.32 1016.48 1016.62 1016.75
1012.80 1012.82 1012.92 1013.07 1013.23 1013.35 1013.41 1013.39 1013.32 1013.24 1013.17 1013.17 1013.26 1013.45 1013.72 1014.04 1014.36 1014.61 1014.76 1014.78 1014.66 1014.42 1014.10 1013.74 1013.39 1013.11 1012.92 1012.84 1012.87 1013.00 1013.21 1013.47 1013.75 1014.06 1014.35 1014.64 1014.91 1015.17 1015.40 1015.61 1015.81 1015.97 1016.13
1012.52 1012.52 1012.60 1012.74 1012.88 1012.99 1013.04 1013.03 1012.96 1012.88 1012.83 1012.86 1012.99 1013.23 1013.57 1013.97 1014.37 1014.72 1014.95 1015.03 1014.95 1014.73 1014.38 1013.97 1013.53 1013.14 1012.83 1012.62 1012.51 1012.52 1012.61 1012.77 1012.98 1013.21 1013.46 1013.72 1013.98 1014.24 1014.49 1014.73 1014.95 1015.16 1015.35
1012.23 1012.21 1012.28 1012.40 1012.54 1012.64 1012.69 1012.68 1012.62 1012.56 1012.52 1012.58 1012.74 1013.03 1013.42 1013.88 1014.34 1014.75 1015.05 1015.18 1015.14 1014.93 1014.59 1014.14 1013.66 1013.19 1012.78 1012.46 1012.24 1012.12 1012.09 1012.13 1012.23 1012.37 1012.54 1012.74 1012.96 1013.19 1013.44 1013.70 1013.95 1014.20 1014.43
1011.98 1011.97 1012.04 1012.16 1012.29 1012.39 1012.44 1012.44 1012.39 1012.34 1012.33 1012.40 1012.58 1012.89 1013.31 1013.79 1014.29 1014.73 1015.06 1015.23 1015.22 1015.04 1014.70 1014.26 1013.76 1013.26 1012.80 1012.40 1012.09 1011.87 1011.72 1011.64 1011.61 1011.63 1011.69 1011.79 1011.93 1012.11 1012.33 1012.58 1012.85 1013.12 1013.39
1011.84 1011.86 1011.95 1012.08 1012.22 1012.32 1012.38 1012.38 1012.34 1012.30 1012.30 1012.38 1012.57 1012.88 1013.29 1013.77 1014.26 1014.69 1015.02 1015.20 1015.21 1015.05 1014.75 1014.33 1013.86 1013.36 1012.89 1012.46 1012.09 1011.79 1011.54 1011.34 1011.18 1011.06 1010.99 1010.96 1010.99 1011.09 1011.25 1011.46 1011.72 1012.01 1012.30
1011.85 1011.93 1012.05 1012.21 1012.36 1012.47 1012.54 1012.55 1012.52 1012.48 1012.48 1012.56 1012.73 1013.01 1013.39 1013.82 1014.27 1014.67 1014.97 1015.13 1015.15 1015.01 1014.74 1014.37 1013.94 1013.48 1013.04 1012.62 1012.24 1011.88 1011.56 1011.25 1010.97 1010.71 1010.49 1010.32 1010.22 1010.21 1010.28 1010.43 1010.65 1010.92 1011.23
1012.02 1012.16 1012.33 1012.52 1012.69 1012.82 1012.89 1012.91 1012.88 1012.85 1012.85 1012.91 1013.06 1013.29 1013.61 1013.98 1014.35 1014.68 1014.92 1015.05 1015.05 1014.92 1014.68 1014.37 1014.00 1013.62 1013.23 1012.85 1012.49 1012.12 1011.75 1011.37 1010.98 1010.59 1010.23 1009.92 1009.68 1009.53 1009.49 1009.56 1009.72 1009.95 1010.24
1012.29 1012.49 1012.72 1012.94 1013.13 1013.28 1013.36 1013.39 1013.37 1013.34 1013.33 1013.37 1013.49 1013.67 1013.92 1014.20 1014.49 1014.73 1014.90 1014.97 1014.94 1014.82 1014.61 1014.34 1014.05 1013.74 1013.43 1013.11 1012.79 1012.44 1012.05 1011.62 1011.16 1010.67 1010.19 1009.75 1009.38 1009.10 1008.94 1008.91 1008.99 1009.17 1009.41
1012.57 1012.83 1013.10 1013.35 1013.56 1013.72 1013.81 1013.85 1013.85 1013.83 1013.82 1013.85 1013.94 1014.08 1014.26 1014.47 1014.66 1014.82 1014.91 1014.92 1014.85 1014.71 1014.52 1014.30 1014.06 1013.83 1013.60 1013.35 1013.08 1012.77 1012.39 1011.95 1011.45 1010.90 1010.33 1009.79 1009.31 1008.93 1008.66 1008.53 1008.52 1008.62 1008.81
1012.75 1013.06 1013.35 1013.62 1013.84 1014.01 1014.11 1014.17 1014.18 1014.18 1014.19 1014.24 1014.31 1014.43 1014.57 1014.71 1014.83 1014.91 1014.93 1014.88 1014.77 1014.61 1014.43 1014.23 1014.05 1013.87 1013.70 1013.53 1013.31 1013.05 1012.71 1012.28 1011.77 1011.20 1010.59 1010.00 1009.45 1008.98 1008.63 1008.41 1008.32 1008.35 1008.47
1012.76 1013.08 1013.38 1013.64 1013.87 1014.03 1014.15 1014.22 1014.27 1014.31 1014.36 1014.43 1014.53 1014.65 1014.77 1014.89 1014.96 1014.99 1014.95 1014.86 1014.71 1014.53 1014.34 1014.16 1014.00 1013.86 1013.74 1013.61 1013.45 1013.23 1012.93 1012.54 1012.06 1011.50 1010.91 1010.30 1009.73 1009.23 1008.83 1008.55 1008.39 1008.34 1008.38
1012.55 1012.86 1013.13 1013.38 1013.59 1013.76 1013.89 1013.99 1014.08 1014.17 1014.28 1014.40 1014.55 1014.70 1014.84 1014.96 1015.02 1015.02 1014.96 1014.83 1014.66 1014.47 1014.27 1014.08 1013.93 1013.81 1013.70 1013.60 1013.48 1013.30 1013.04 1012.70 1012.27 1011.77 1011.21 1010.64 1010.09 1009.60 1009.19 1008.87 1008.66 1008.55 1008.51
1012.14 1012.40 1012.65 1012.87 1013.06 1013.22 1013.36 1013.50 1013.64 1013.80 1013.97 1014.17 1014.38 1014.59 1014.77 1014.92 1015.00 1015.01 1014.94 1014.81 1014.63 1014.42 1014.21 1014.02 1013.86 1013.73 1013.63 1013.53 1013.42 1013.26 1013.05 1012.76 1012.39 1011.96 1011.48 1010.97 1010.48 1010.03 1009.63 1009.32 1009.08 1008.91 1008.80
Thickness
5781 5780 5779 5778 5779 5777 5776 5775 5774 5774 5773 5773 5772 5772 5771 5770 5770 5770 5766 5762 5761 5759 5758 5757 5756 5755 5755 5754 5753 5753 5752 5751 5749 5748 5747 5747 5746 5745 5743 5742 5741 5740 5739
5780 5779 5778 5778 5778 5777 5776 5775 5774 5773 5772 5772 5771 5770 5770 5769 5767 5766 5765 5762 5759 5758 5757 5756 5755 5755 5754 5753 5752 5752 5751 5750 5748 5747 5747 5746 5745 5744 5743 5741 5740 5739 5738
5779 5778 5779 5777 5776 5776 5774 5774 5773 5772 5771 5770 5769 5769 5768 5767 5766 5764 5763 5763 5760 5757 5755 5754 5753 5752 5752 5752 5751 5750 5750 5749 5748 5746 5745 5744 5743 5742 5742 5741 5740 5739 5738
5777 5777 5777 5776 5774 5774 5773 5772 5771 5770 5769 5768 5767 5767 5767 5765 5764 5762 5761 5760 5759 5758 5754 5752 5751 5750 5750 5750 5749 5749 5748 5748 5747 5746 5744 5742 5741 5741 5740 5739 5739 5738 5737
5777 5777 5775 5773 5773 5772 5771 5771 5769 5767 5766 5765 5765 5764 5765 5763 5762 5761 5760 5758 5757 5756 5754 5751 5749 5748 5748 5747 5747 5747 5747 5746 5746 5745 5743 5741 5740 5739 5738 5738 5737 5737 5736
5776 5776 5775 5772 5772 5770 5768 5767 5764 5763 5763 5763 5764 5763 5762 5762 5761 5759 5759 5757 5755 5754 5752 5751 5749 5747 5746 5745 5745 5745 5744 5744 5743 5742 5741 5740 5739 5738 5737 5737 5736 5735 5734
5775 5774 5774 5770 5769 5768 5765 5765 5763 5761 5760 5761 5759 5758 5758 5759 5758 5757 5756 5755 5753 5751 5750 5749 5748 5747 5746 5743 5743 5742 5741 5741 5741 5740 5739 5738 5738 5737 5736 5735 5735 5734 5733
5773 5774 5770 5770 5768 5765 5762 5761 5759 5759 5758 5758 5755 5752 5749 5750 5751 5755 5752 5751 5750 5749 5748 5747 5746 5744 5744 5743 5741 5740 5739 5738 5737 5737 5737 5736 5736 5735 5735 5734 5733 5732 5731
5771 5769 5768 5767 5765 5765 5761 5758 5757 5755 5753 5755 5754 5751 5746 5743 5745 5748 5747 5747 5746 5745 5746 5745 5743 5742 5741 5740 5739 5737 5736 5735 5734 5733 5733 5733 5733 5732 5731 5731 5730 5729 5729
5769 5767 5765 5763 5762 5762 5758 5757 5756 5754 5751 5750 5751 5749 5747 5745 5739 5738 5741 5743 5742 5741 5741 5741 5741 5739 5738 5737 5735 5734 5732 5731 5730 5730 5729 5729 5729 5728 5727 5726 5726 5726 5725
5766 5764 5762 5760 5757 5757 5754 5752 5751 5750 5749 5747 5746 5745 5743 5741 5740 5735 5732 5734 5737 5738 5737 5737 5737 5737 5735 5734 5732 5731 5728 5727 5727 5726 5726 5725 5724 5724 5723 5722 5722 5722 5722
5763 5761 5759 5756 5754 5752 5750 5748 5746 5745 5744 5742 5742 5742 5739 5736 5735 5733 5730 5728 5729 5732 5732 5732 5733 5733 5732 5731 5729 5727 5725 5724 5723 5722 5722 5721 5720 5720 5719 5719 5719 5719 5718
5760 5756 5755 5751 5750 5747 5745 5744 5741 5740 5738 5735 5734 5735 5735 5733 5732 5730 5727 5726 5724 5726 5726 5727 5728 5728 5728 5726 5724 5722 5721 5720 5719 5718 5718 5717 5717 5716 5716 5715 5715 5715 5715
5757 5754 5750 5747 5745 5743 5742 5739 5739 5737 5734 5731 5730 5728 5728 5728 5727 5725 5723 5720 5718 5719 5720 5720 5722 5722 5721 5719 5718 5717 5717 5715 5714 5714 5713 5713 5713 5712 5711 5711 5711 5711 5711
5755 5751 5747 5744 5741 5739 5736 5735 5733 5730 5729 5728 5727 5724 5723 5722 5721 5720 5719 5716 5711 5709 5710 5712 5713 5714 5714 5713 5711 5711 5712 5710 5709 5709 5708 5708 5708 5707 5707 5707 5707 5706 5706
5749 5747 5744 5740 5737 5734 5732 5729 5728 5726 5723 5721 5720 5717 5715 5716 5714 5713 5712 5711 5709 5705 5704 5708 5706 5707 5705 5707 5705 5705 5706 5704 5704 5704 5703 5703 5702 5702 5701 5701 5702 5702 5701
5745 5742 5739 5736 5733 5730 5728 5724 5723 5721 5718 5716 5714 5712 5709 5708 5707 5707 5705 5704 5702 5700 5696 5699 5701 5700 5697 5697 5698 5699 5700 5700 5700 5698 5697 5697 5696 5696 5696 5695 5696 5696 5696
5741 5739 5735 5731 5728 5726 5723 5720 5717 5715 5713 5711 5709 5706 5704 5703 5700 5699 5697 5696 5695 5693 5691 5688 5691 5692 5690 5690 5690 5690 5693 5696 5695 5693 5692 5691 5690 5690 5690 5689 5689 5689 5690
5737 5735 5731 5727 5723 5720 5717 5714 5712 5710 5708 5706 5704 5701 5699 5697 5694 5693 5690 5689 5689 5688 5685 5684 5684 5683 5684 5683 5682 5684 5686 5685 5688 5688 5687 5686 5685 5684 5684 5683 5683 5683 5683
5733 5729 5726 5722 5719 5716 5713 5710 5707 5705 5702 5700 5698 5696 5694 5691 5688 5686 5685 5682 5681 5680 5678 5677 5677 5676 5675 5675 5674 5675 5676 5678 5680 5682 5682 5681 5680 5678 5678 5678 5677 5677 5677
5729 5724 5720 5717 5714 5711 5709 5705 5702 5700 5697 5694 5692 5691 5689 5685 5682 5680 5679 5676 5674 5673 5673 5672 5670 5669 5668 5666 5666 5667 5667 5669 5671 5673 5674 5676 5676 5676 5675 5673 5671 5670 5670
5723 5718 5715 5712 5709 5708 5701 5696 5694 5693 5691 5689 5686 5685 5683 5680 5676 5671 5669 5667 5666 5665 5665 5664 5664 5662 5659 5659 5658 5659 5659 5660 5661 5665 5665 5667 5669 5669 5670 5669 5666 5664 5663
5717 5712 5709 5707 5704 5700 5694 5690 5687 5687 5686 5683 5681 5679 5679 5677 5671 5669 5665 5662 5660 5658 5657 5656 5656 5654 5654 5653 5650 5651 5650 5650 5651 5655 5655 5656 5660 5661 5663 5662 5659 5657 5656
5710 5706 5703 5701 5698 5694 5688 5684 5681 5682 5681 5679 5676 5674 5671 5669 5667 5663 5661 5659 5658 5656 5653 5651 5650 5649 5648 5646 5643 5643 5642 5644 5645 5647 5647 5647 5651 5652 5655 5654 5651 5650 5649
5703 5700 5698 5695 5691 5688 5682 5678 5675 5677 5675 5674 5672 5669 5666 5663 5658 5655 5654 5653 5652 5651 5648 5645 5643 5641 5639 5638 5636 5637 5638 5639 5639 5641 5641 5640 5643 5644 5646 5646 5645 5643 5642
5697 5695 5692 5689 5686 5682 5676 5672 5670 5673 5671 5670 5667 5665 5659 5656 5651 5648 5648 5647 5645 5645 5644 5642 5639 5637 5636 5635 5632 5631 5633 5633 5634 5634 5635 5634 5636 5636 5637 5639 5639 5638 5637